Aérodrome :
LOGIN :

S'inscrire | Disclaimer

   EN    FR    IT 

 










Légende :    VFR   VFR Marginal   IFR   IFR Intensif   IFR Très Intensif
Visi : 
Plafond : 
>= 8 km
>= 3000ft
5 à 8 km
1000 à 3000 ft
1500m à 5 km
500 à 1000 ft
800 à 1500m
200 à 500 ft
< 800m
< 200 ft
Symboles :   Orages  Brouillard  Fortes neiges  Fortes précipitations  Vent > 20 kt
SIGMETs :   Divers  Orages  Givrage  Turbulence  Onde Orograph.  Cendres Volcan.







- Altitude de l'aérodrome : 82 ft
- Code IATA : QIE
- Voir les cartes d'approche


LFMI - Istres

DERNIER METAR :
  • 221430Z AUTO 31010KT CAVOK 09/M03 Q1005 NOSIG

METARs EXPIRÉS :
  • 221400Z AUTO 33011KT 300V360 CAVOK 08/M03 Q1006 NOSIG
  • 221330Z AUTO 33009KT 300V360 CAVOK 08/M02 Q1006 NOSIG
  • 221300Z AUTO 32011KT 290V360 CAVOK 08/M02 Q1007 NOSIG
  • 221230Z AUTO 34009KT 310V010 CAVOK 07/M02 Q1007 NOSIG
  • 221200Z AUTO 33009KT 300V010 CAVOK 06/M02 Q1008 NOSIG

TAF TAF LFMI
Valide du 22 à 15h jusqu'au 23 à 15h UTC


221400Z 2215/2315 35012KT CAVOK
BECMG 2216/2218 VRB02KT
BECMG 2311/2312 34012KT
Pas de NOTAMs connus pour ce terrain.



MET'MAP, la Météo Aéronautique d'un coup d'oeil ! - Copyright ORBIFLY Décembre 2007 - Disclaimer

ORBIFLY MET'MAP TEAM :

Programmation & Développement : Alexandra Zaïnal
Conception & Développement : Baudouin d'Aumeries
Co-Programmation & Développement : Marc-Olivier Méhu
Soutien technique & logistique : Manuel Goepfert

Contact : metmap@orbifly.com




SOURCES & CREDITS :

   NOAA